Orbital Elements at Epoch 2459200.5 (2020-Dec-17.0) TDB
Reference: JPL 14 (heliocentric ecliptic J2000)
Element | Value | Uncertainty (1-sigma) | Units |
e | .03252194861388017 | 5.9789e-08 | |
a | 2.67310799357718 | 1.8413e-08 | au |
q | 2.586173312770711 | 1.6326e-07 | au |
i | 4.068088055961929 | 4.8872e-06 | deg |
node | 322.5253407940649 | 9.5997e-05 | deg |
peri | 200.2670351897136 | 0.00013569 | deg |
M | 238.8394469853351 | 9.723e-05 | deg |
tp | 2459737.756811039416 (2022-Jun-07.25681104) | 0.00043302 | TDB |
period | 1596.331868432293 4.37 | 1.6494e-05 4.516e-08 | d yr |
n | .2255170163041001 | 2.3301e-09 | deg/d |
Q | 2.76004267438365 | 1.9012e-08 | au |
|
| | Orbit Determination Parameters
Additional Information
|